"datetime","temp","dp","rain_mm","uv","solar","mb","wind_mph","gust_mph","windchill","rh"
"2019-04-05 00:00:00",6.7,5.6,0.0,0.0,0,996.9,1,2,"",93
"2019-04-05 00:01:00",6.7,5.6,0.0,0.0,0,996.9,2,5,5.1,93
"2019-04-05 00:02:00",6.7,5.6,0.0,0.0,0,996.9,0,2,"",93
"2019-04-05 00:03:00",6.7,5.6,0.0,0.0,0,996.9,2,3,"",93
"2019-04-05 00:04:00",6.7,5.6,0.0,0.0,0,996.9,1,2,"",93
"2019-04-05 00:05:00",6.7,5.6,0.0,0.0,0,996.9,1,5,5.1,93
"2019-04-05 00:06:00",6.7,5.6,0.0,0.0,0,996.9,0,3,"",93
"2019-04-05 00:07:00",6.7,5.6,0.0,0.0,0,996.9,1,3,"",93
"2019-04-05 00:08:00",6.7,5.6,0.0,0.0,0,996.9,0,1,"",93
"2019-04-05 00:09:00",6.7,5.6,0.0,0.0,0,996.9,1,4,5.5,93
"2019-04-05 00:10:00",6.7,5.6,0.0,0.0,0,996.9,1,4,5.5,93
"2019-04-05 00:11:00",6.7,5.6,0.0,0.0,0,996.9,0,1,"",93
"2019-04-05 00:12:00",6.8,5.7,0.0,0.0,0,996.9,1,4,5.7,93
"2019-04-05 00:13:00",6.7,5.6,0.0,0.0,0,996.9,0,0,"",93
"2019-04-05 00:14:00",6.7,5.6,0.0,0.0,0,996.9,0,0,"",93
"2019-04-05 00:15:00",6.7,5.6,0.0,0.0,0,996.9,3,7,4.4,93
"2019-04-05 00:16:00",6.8,5.7,0.0,0.0,0,996.9,1,2,"",93
"2019-04-05 00:17:00",6.8,5.7,0.0,0.0,0,996.9,0,0,"",93
"2019-04-05 00:18:00",6.8,5.7,0.0,0.0,0,996.9,0,0,"",93
"2019-04-05 00:19:00",6.8,5.7,0.0,0.0,0,996.9,0,0,"",93
"2019-04-05 00:20:00",6.7,5.6,0.0,0.0,0,996.9,1,3,"",93
"2019-04-05 00:21:00",6.7,5.6,0.0,0.0,0,996.9,1,2,"",93
"2019-04-05 00:22:00",6.7,5.6,0.0,0.0,0,996.9,2,4,5.5,93
"2019-04-05 00:23:00",6.7,5.6,0.0,0.0,0,996.9,1,3,"",93
"2019-04-05 00:24:00",6.7,5.6,0.0,0.0,0,996.9,1,3,"",93
"2019-04-05 00:25:00",6.7,5.6,0.0,0.0,0,996.9,1,4,5.5,93
"2019-04-05 00:26:00",6.7,5.6,0.0,0.0,0,996.9,1,4,5.5,93
"2019-04-05 00:27:00",6.7,5.6,0.0,0.0,0,996.9,0,0,"",93
"2019-04-05 00:28:00",6.7,5.6,0.0,0.0,0,996.9,1,3,"",93
"2019-04-05 00:29:00",6.7,5.6,0.0,0.0,0,996.9,0,0,"",93
"2019-04-05 00:30:00",6.7,5.6,0.0,0.0,0,996.9,2,4,5.5,93
"2019-04-05 00:31:00",6.7,5.6,0.0,0.0,0,997.0,1,3,"",93
"2019-04-05 00:32:00",6.7,5.6,0.0,0.0,0,996.9,1,2,"",93
"2019-04-05 00:33:00",6.7,5.5,0.0,0.0,0,996.9,2,4,5.5,92
"2019-04-05 00:34:00",6.7,5.5,0.0,0.0,0,996.9,3,6,4.8,92
"2019-04-05 00:35:00",6.7,5.6,0.0,0.0,0,996.9,2,3,"",93
"2019-04-05 00:36:00",6.7,5.5,0.0,0.0,0,996.9,3,6,4.8,92
"2019-04-05 00:37:00",6.7,5.5,0.0,0.0,0,996.9,3,6,4.8,92
"2019-04-05 00:38:00",6.7,5.5,0.0,0.0,0,996.9,2,4,5.5,92
"2019-04-05 00:39:00",6.7,5.5,0.0,0.0,0,996.9,1,2,"",92
"2019-04-05 00:40:00",6.7,5.5,0.0,0.0,0,996.9,1,3,"",92
"2019-04-05 00:41:00",6.7,5.5,0.0,0.0,0,996.9,1,3,"",92
"2019-04-05 00:42:00",6.8,5.6,0.0,0.0,0,996.9,2,5,5.2,92
"2019-04-05 00:43:00",6.8,5.6,0.0,0.0,0,996.9,0,1,"",92
"2019-04-05 00:44:00",6.8,5.6,0.0,0.0,0,996.9,0,1,"",92
"2019-04-05 00:45:00",6.8,5.6,0.0,0.0,0,996.9,1,4,5.7,92
"2019-04-05 00:46:00",6.8,5.6,0.0,0.0,0,996.9,0,2,"",92
"2019-04-05 00:47:00",6.8,5.6,0.0,0.0,0,996.9,0,0,"",92
"2019-04-05 00:48:00",6.8,5.6,0.0,0.0,0,997.0,2,3,"",92
"2019-04-05 00:49:00",6.8,5.6,0.0,0.0,0,996.9,1,2,"",92
"2019-04-05 00:50:00",6.8,5.6,0.0,0.0,0,997.0,2,4,5.7,92
"2019-04-05 00:51:00",6.8,5.6,0.0,0.0,0,997.0,1,2,"",92
"2019-04-05 00:52:00",6.8,5.6,0.0,0.0,0,997.0,0,1,"",92
"2019-04-05 00:53:00",6.8,5.6,0.0,0.0,0,996.9,1,4,5.7,92
"2019-04-05 00:54:00",6.8,5.6,0.0,0.0,0,996.9,0,2,"",92
"2019-04-05 00:55:00",6.8,5.6,0.0,0.0,0,996.9,1,3,"",92
"2019-04-05 00:56:00",6.8,5.6,0.0,0.0,0,996.9,0,2,"",92
"2019-04-05 00:57:00",6.8,5.6,0.0,0.0,0,996.9,0,0,"",92
"2019-04-05 00:58:00",6.8,5.6,0.0,0.0,0,997.0,1,2,"",92
"2019-04-05 00:59:00",6.8,5.6,0.0,0.0,0,997.0,1,2,"",92
"2019-04-05 01:00:00",6.8,5.6,0.0,0.0,0,996.9,0,2,"",92
"2019-04-05 01:01:00",6.8,5.6,0.0,0.0,0,997.0,0,2,"",92
"2019-04-05 01:02:00",6.8,5.6,0.0,0.0,0,997.0,0,0,"",92
"2019-04-05 01:03:00",6.8,5.6,0.0,0.0,0,996.9,0,1,"",92
"2019-04-05 01:04:00",6.8,5.6,0.0,0.0,0,996.9,0,2,"",92
"2019-04-05 01:05:00",6.8,5.6,0.0,0.0,0,996.9,0,0,"",92
"2019-04-05 01:06:00",6.8,5.6,0.0,0.0,0,996.9,0,0,"",92
"2019-04-05 01:07:00",6.8,5.6,0.0,0.0,0,996.9,1,3,"",92
"2019-04-05 01:08:00",6.8,5.6,0.0,0.0,0,997.0,0,1,"",92
"2019-04-05 01:09:00",6.8,5.6,0.0,0.0,0,997.0,0,1,"",92
"2019-04-05 01:10:00",6.8,5.6,0.0,0.0,0,996.9,0,1,"",92
"2019-04-05 01:11:00",6.8,5.6,0.0,0.0,0,996.9,0,0,"",92
"2019-04-05 01:12:00",6.8,5.6,0.0,0.0,0,997.0,0,0,"",92
"2019-04-05 01:13:00",6.7,5.5,0.0,0.0,0,996.9,0,0,"",92
"2019-04-05 01:14:00",6.7,5.3,0.0,0.0,0,996.9,1,3,"",91
"2019-04-05 01:15:00",6.7,5.3,0.0,0.0,0,996.9,2,4,5.5,91
"2019-04-05 01:16:00",6.7,5.3,0.0,0.0,0,996.9,0,1,"",91
"2019-04-05 01:17:00",6.7,5.3,0.0,0.0,0,996.9,0,1,"",91
"2019-04-05 01:18:00",6.7,5.3,0.0,0.0,0,996.9,0,1,"",91
"2019-04-05 01:19:00",6.7,5.3,0.0,0.0,0,996.9,0,1,"",91
"2019-04-05 01:20:00",6.7,5.3,0.0,0.0,0,996.8,0,1,"",91
"2019-04-05 01:21:00",6.7,5.3,0.0,0.0,0,996.9,1,2,"",91
"2019-04-05 01:22:00",6.7,5.3,0.0,0.0,0,996.9,1,2,"",91
"2019-04-05 01:23:00",6.6,5.4,0.0,0.0,0,996.9,0,2,"",92
"2019-04-05 01:24:00",6.6,5.4,0.0,0.0,0,996.9,1,3,"",92
"2019-04-05 01:25:00",6.6,5.4,0.0,0.0,0,996.9,1,3,"",92
"2019-04-05 01:26:00",6.6,5.4,0.0,0.0,0,996.9,2,5,5.0,92
"2019-04-05 01:27:00",6.6,5.4,0.0,0.0,0,996.8,2,5,5.0,92
"2019-04-05 01:28:00",6.6,5.4,0.0,0.0,0,996.8,3,4,5.4,92
"2019-04-05 01:29:00",6.6,5.4,0.0,0.0,0,996.9,2,3,"",92
"2019-04-05 01:30:00",6.6,5.4,0.0,0.0,0,996.9,1,2,"",92
"2019-04-05 01:31:00",6.6,5.4,0.0,0.0,0,996.8,0,0,"",92
"2019-04-05 01:32:00",6.6,5.4,0.0,0.0,0,996.8,0,0,"",92
"2019-04-05 01:33:00",6.6,5.4,0.0,0.0,0,996.8,1,3,"",92
"2019-04-05 01:34:00",6.6,5.4,0.0,0.0,0,996.8,0,2,"",92
"2019-04-05 01:35:00",6.6,5.4,0.0,0.0,0,996.8,1,2,"",92
"2019-04-05 01:36:00",6.6,5.4,0.0,0.0,0,996.8,0,1,"",92
"2019-04-05 01:37:00",6.6,5.4,0.0,0.0,0,996.8,2,3,"",92
"2019-04-05 01:38:00",6.6,5.4,0.0,0.0,0,996.8,0,0,"",92
"2019-04-05 01:39:00",6.6,5.4,0.0,0.0,0,996.8,0,2,"",92
"2019-04-05 01:40:00",6.6,5.2,0.0,0.0,0,996.8,0,1,"",91
"2019-04-05 01:41:00",6.6,5.4,0.0,0.0,0,996.8,0,2,"",92
"2019-04-05 01:42:00",6.6,5.4,0.0,0.0,0,996.7,1,3,"",92
"2019-04-05 01:43:00",6.6,5.4,0.0,0.0,0,996.8,1,3,"",92
"2019-04-05 01:44:00",6.6,5.4,0.0,0.0,0,996.8,1,2,"",92
"2019-04-05 01:45:00",6.6,5.4,0.0,0.0,0,996.8,2,4,5.4,92
"2019-04-05 01:46:00",6.6,5.4,0.0,0.0,0,996.8,1,3,"",92
"2019-04-05 01:47:00",6.5,5.3,0.0,0.0,0,996.8,0,0,"",92
"2019-04-05 01:48:00",6.5,5.1,0.0,0.0,0,996.9,2,6,4.5,91
"2019-04-05 01:49:00",6.6,5.4,0.0,0.0,0,996.8,1,2,"",92
"2019-04-05 01:50:00",6.6,5.4,0.0,0.0,0,996.8,0,0,"",92
"2019-04-05 01:51:00",6.5,5.3,0.0,0.0,0,996.8,0,0,"",92
"2019-04-05 01:52:00",6.6,5.4,0.0,0.0,0,996.8,0,0,"",92
"2019-04-05 01:53:00",6.6,5.4,0.0,0.0,0,996.8,1,4,5.4,92
"2019-04-05 01:54:00",6.6,5.4,0.0,0.0,0,996.8,3,7,4.3,92
"2019-04-05 01:55:00",6.5,5.3,0.0,0.0,0,996.8,0,2,"",92
"2019-04-05 01:56:00",6.6,5.4,0.0,0.0,0,996.8,1,2,"",92
"2019-04-05 01:57:00",6.6,5.4,0.0,0.0,0,996.8,0,1,"",92
"2019-04-05 01:58:00",6.5,5.3,0.0,0.0,0,996.8,2,3,"",92
"2019-04-05 01:59:00",6.5,5.1,0.0,0.0,0,996.8,0,1,"",91
"2019-04-05 02:00:00",6.5,5.1,0.0,0.0,0,996.8,0,0,"",91
"2019-04-05 02:01:00",6.5,5.1,0.0,0.0,0,996.9,0,0,"",91
"2019-04-05 02:02:00",6.5,5.1,0.0,0.0,0,996.8,1,2,"",91
"2019-04-05 02:03:00",6.5,5.1,0.0,0.0,0,996.8,2,6,4.5,91
"2019-04-05 02:04:00",6.5,5.1,0.0,0.0,0,996.8,0,1,"",91
"2019-04-05 02:05:00",6.5,5.1,0.0,0.0,0,996.8,0,0,"",91
"2019-04-05 02:06:00",6.5,5.1,0.0,0.0,0,996.8,0,0,"",91
"2019-04-05 02:07:00",6.5,5.1,0.0,0.0,0,996.8,0,0,"",91
"2019-04-05 02:08:00",6.4,5.0,0.0,0.0,0,996.8,1,3,"",91
"2019-04-05 02:09:00",6.5,5.1,0.0,0.0,0,996.8,0,0,"",91
"2019-04-05 02:10:00",6.5,5.1,0.0,0.0,0,996.8,0,0,"",91
"2019-04-05 02:11:00",6.5,5.1,0.0,0.0,0,996.8,0,0,"",91
"2019-04-05 02:12:00",6.5,5.1,0.0,0.0,0,996.8,0,1,"",91
"2019-04-05 02:13:00",6.5,5.1,0.0,0.0,0,996.8,0,1,"",91
"2019-04-05 02:14:00",6.4,5.0,0.0,0.0,0,996.8,0,0,"",91
"2019-04-05 02:15:00",6.4,5.0,0.0,0.0,0,996.8,1,2,"",91
"2019-04-05 02:16:00",6.4,5.0,0.0,0.0,0,996.8,1,3,"",91
"2019-04-05 02:17:00",6.4,5.0,0.0,0.0,0,996.8,0,1,"",91
"2019-04-05 02:18:00",6.4,5.0,0.0,0.0,0,996.8,0,0,"",91
"2019-04-05 02:19:00",6.4,5.0,0.0,0.0,0,996.8,0,0,"",91
"2019-04-05 02:20:00",6.4,5.0,0.0,0.0,0,996.7,0,1,"",91
"2019-04-05 02:21:00",6.4,5.0,0.0,0.0,0,996.7,0,1,"",91
"2019-04-05 02:22:00",6.4,5.0,0.0,0.0,0,996.7,0,2,"",91
"2019-04-05 02:23:00",6.3,4.9,0.0,0.0,0,996.7,2,4,5.1,91
"2019-04-05 02:24:00",6.3,4.9,0.0,0.0,0,996.7,0,1,"",91
"2019-04-05 02:25:00",6.3,4.9,0.0,0.0,0,996.7,1,2,"",91
"2019-04-05 02:26:00",6.3,4.9,0.0,0.0,0,996.7,0,1,"",91
"2019-04-05 02:27:00",6.3,4.9,0.0,0.0,0,996.7,1,3,"",91
"2019-04-05 02:28:00",6.3,4.9,0.0,0.0,0,996.8,0,2,"",91
"2019-04-05 02:29:00",6.3,4.9,0.0,0.0,0,996.8,0,0,"",91
"2019-04-05 02:30:00",6.2,4.8,0.0,0.0,0,996.8,0,1,"",91
"2019-04-05 02:31:00",6.3,4.9,0.0,0.0,0,996.8,1,3,"",91
"2019-04-05 02:32:00",6.2,4.8,0.0,0.0,0,996.7,1,3,"",91
"2019-04-05 02:33:00",6.2,4.8,0.0,0.0,0,996.8,2,4,5.0,91
"2019-04-05 02:34:00",6.2,4.8,0.0,0.0,0,996.8,0,1,"",91
"2019-04-05 02:35:00",6.2,4.8,0.0,0.0,0,996.7,1,3,"",91
"2019-04-05 02:36:00",6.2,4.8,0.0,0.0,0,996.7,1,2,"",91
"2019-04-05 02:37:00",6.2,4.8,0.0,0.0,0,996.7,0,0,"",91
"2019-04-05 02:38:00",6.2,4.8,0.0,0.0,0,996.7,0,0,"",91
"2019-04-05 02:39:00",6.1,4.7,0.0,0.0,0,996.7,3,6,4.2,91
"2019-04-05 02:40:00",6.1,4.7,0.0,0.0,0,996.7,1,2,"",91
"2019-04-05 02:41:00",6.1,4.7,0.0,0.0,0,996.7,1,2,"",91
"2019-04-05 02:42:00",6.1,4.7,0.0,0.0,0,996.7,2,4,4.9,91
"2019-04-05 02:43:00",6.1,4.7,0.0,0.0,0,996.8,1,3,"",91
"2019-04-05 02:44:00",6.1,4.7,0.0,0.0,0,996.8,0,0,"",91
"2019-04-05 02:45:00",6.1,4.7,0.0,0.0,0,996.8,0,0,"",91
"2019-04-05 02:46:00",6.1,4.7,0.0,0.0,0,996.8,0,0,"",91
"2019-04-05 02:47:00",6.1,4.7,0.0,0.0,0,996.8,0,0,"",91
"2019-04-05 02:48:00",6.0,4.6,0.0,0.0,0,996.8,0,2,"",91
"2019-04-05 02:49:00",6.0,4.6,0.0,0.0,0,996.8,3,7,3.7,91
"2019-04-05 02:50:00",6.0,4.6,0.0,0.0,0,996.8,0,1,"",91
"2019-04-05 02:51:00",6.0,4.6,0.0,0.0,0,996.8,0,0,"",91
"2019-04-05 02:52:00",6.0,4.6,0.0,0.0,0,996.9,0,0,"",91
"2019-04-05 02:53:00",6.0,4.6,0.0,0.0,0,996.9,0,0,"",91
"2019-04-05 02:54:00",6.0,4.6,0.0,0.0,0,996.9,0,2,"",91
"2019-04-05 02:55:00",6.0,4.6,0.0,0.0,0,996.9,0,0,"",91
"2019-04-05 02:56:00",5.9,4.5,0.0,0.0,0,996.9,2,4,4.6,91
"2019-04-05 02:57:00",5.9,4.5,0.0,0.0,0,996.9,0,1,"",91
"2019-04-05 02:58:00",5.9,4.5,0.0,0.0,0,996.9,0,0,"",91
"2019-04-05 02:59:00",5.9,4.5,0.0,0.0,0,996.9,0,1,"",91
"2019-04-05 03:00:00",5.9,4.5,0.0,0.0,0,996.9,0,0,"",91
"2019-04-05 03:01:00",5.9,4.5,0.0,0.0,0,996.9,0,0,"",91
"2019-04-05 03:02:00",5.9,4.5,0.0,0.0,0,996.9,0,0,"",91
"2019-04-05 03:03:00",5.9,4.5,0.0,0.0,0,996.9,0,1,"",91
"2019-04-05 03:04:00",5.8,4.4,0.0,0.0,0,996.9,0,0,"",91
"2019-04-05 03:05:00",5.8,4.4,0.0,0.0,0,996.9,0,0,"",91
"2019-04-05 03:06:00",5.8,4.4,0.0,0.0,0,996.9,0,3,"",91
"2019-04-05 03:07:00",5.8,4.4,0.0,0.0,0,996.9,0,3,"",91
"2019-04-05 03:08:00",5.8,4.4,0.0,0.0,0,997.0,1,3,"",91
"2019-04-05 03:09:00",5.8,4.4,0.0,0.0,0,997.0,0,0,"",91
"2019-04-05 03:10:00",5.8,4.4,0.0,0.0,0,997.0,0,1,"",91
"2019-04-05 03:11:00",5.8,4.4,0.0,0.0,0,997.0,3,9,2.8,91
"2019-04-05 03:12:00",5.7,4.3,0.0,0.0,0,997.0,0,2,"",91
"2019-04-05 03:13:00",5.7,4.3,0.0,0.0,0,997.0,0,2,"",91
"2019-04-05 03:14:00",5.7,4.3,0.0,0.0,0,997.0,1,2,"",91
"2019-04-05 03:15:00",5.7,4.3,0.0,0.0,0,997.0,0,2,"",91
"2019-04-05 03:16:00",5.7,4.3,0.0,0.0,0,997.0,0,0,"",91
"2019-04-05 03:17:00",5.7,4.3,0.0,0.0,0,997.0,0,0,"",91
"2019-04-05 03:18:00",5.6,4.2,0.0,0.0,0,997.0,1,2,"",91
"2019-04-05 03:19:00",5.7,4.3,0.0,0.0,0,997.0,1,2,"",91
"2019-04-05 03:20:00",5.7,4.3,0.0,0.0,0,997.0,1,3,"",91
"2019-04-05 03:21:00",5.7,4.3,0.0,0.0,0,997.0,1,2,"",91
"2019-04-05 03:22:00",5.6,4.2,0.0,0.0,0,997.0,2,3,"",91
"2019-04-05 03:23:00",5.6,4.2,0.0,0.0,0,997.0,2,3,"",91
"2019-04-05 03:24:00",5.6,4.2,0.0,0.0,0,996.9,0,1,"",91
"2019-04-05 03:25:00",5.6,4.2,0.0,0.0,0,997.0,1,3,"",91
"2019-04-05 03:26:00",5.6,4.2,0.0,0.0,0,997.0,0,1,"",91
"2019-04-05 03:27:00",5.6,4.2,0.0,0.0,0,997.0,0,2,"",91
"2019-04-05 03:28:00",5.6,4.2,0.0,0.0,0,997.0,2,5,3.8,91
"2019-04-05 03:29:00",5.6,4.2,0.0,0.0,0,997.0,0,2,"",91
"2019-04-05 03:30:00",5.6,4.2,0.0,0.0,0,997.1,0,0,"",91
"2019-04-05 03:31:00",5.6,4.2,0.0,0.0,0,997.1,1,3,"",91
"2019-04-05 03:32:00",5.6,4.2,0.0,0.0,0,997.0,2,4,4.3,91
"2019-04-05 03:33:00",5.6,4.2,0.0,0.0,0,997.1,2,4,4.3,91
"2019-04-05 03:34:00",5.6,4.4,0.0,0.0,0,997.1,2,4,4.3,92
"2019-04-05 03:35:00",5.6,4.4,0.0,0.0,0,997.1,2,5,3.8,92
"2019-04-05 03:36:00",5.6,4.4,0.0,0.0,0,997.0,2,4,4.3,92
"2019-04-05 03:37:00",5.6,4.4,0.0,0.0,0,997.1,1,2,"",92
"2019-04-05 03:38:00",5.6,4.2,0.0,0.0,0,997.1,1,2,"",91
"2019-04-05 03:39:00",5.6,4.4,0.0,0.0,0,997.1,1,4,4.3,92
"2019-04-05 03:40:00",5.6,4.2,0.0,0.0,0,997.0,1,3,"",91
"2019-04-05 03:41:00",5.6,4.4,0.0,0.0,0,997.0,0,1,"",92
"2019-04-05 03:42:00",5.6,4.2,0.0,0.0,0,997.0,1,3,"",91
"2019-04-05 03:43:00",5.6,4.2,0.0,0.0,0,997.0,0,2,"",91
"2019-04-05 03:44:00",5.7,4.3,0.0,0.0,0,997.0,0,0,"",91
"2019-04-05 03:45:00",5.7,4.3,0.0,0.0,0,997.0,1,2,"",91
"2019-04-05 03:46:00",5.7,4.3,0.0,0.0,0,997.0,1,2,"",91
"2019-04-05 03:47:00",5.7,4.3,0.0,0.0,0,997.0,1,2,"",91
"2019-04-05 03:48:00",5.7,4.3,0.0,0.0,0,997.0,2,4,4.4,91
"2019-04-05 03:49:00",5.7,4.5,0.0,0.0,0,997.0,3,6,3.6,92
"2019-04-05 03:50:00",5.7,4.5,0.0,0.0,0,996.9,1,3,"",92
"2019-04-05 03:51:00",5.7,4.5,0.0,0.0,0,997.0,0,1,"",92
"2019-04-05 03:52:00",5.7,4.5,0.0,0.0,0,996.9,0,1,"",92
"2019-04-05 03:53:00",5.7,4.3,0.0,0.0,0,996.9,1,2,"",91
"2019-04-05 03:54:00",5.7,4.3,0.0,0.0,0,997.0,0,0,"",91
"2019-04-05 03:55:00",5.7,4.3,0.0,0.0,0,997.0,0,0,"",91
"2019-04-05 03:56:00",5.7,4.3,0.0,0.0,0,997.0,0,1,"",91
"2019-04-05 03:57:00",5.7,4.3,0.0,0.0,0,997.0,0,2,"",91
"2019-04-05 03:58:00",5.6,4.2,0.0,0.0,0,997.0,1,2,"",91
"2019-04-05 03:59:00",5.7,4.3,0.0,0.0,0,997.0,1,2,"",91
"2019-04-05 04:00:00",5.6,4.2,0.0,0.0,0,997.0,0,1,"",91
"2019-04-05 04:01:00",5.6,4.2,0.0,0.0,0,997.1,0,1,"",91
"2019-04-05 04:02:00",5.7,4.3,0.0,0.0,0,997.0,0,1,"",91
"2019-04-05 04:03:00",5.7,4.3,0.0,0.0,0,997.0,0,0,"",91
"2019-04-05 04:04:00",5.7,4.3,0.0,0.0,0,997.0,1,3,"",91
"2019-04-05 04:05:00",5.6,4.2,0.0,0.0,0,997.1,0,0,"",91
"2019-04-05 04:06:00",5.6,4.2,0.0,0.0,0,997.1,1,3,"",91
"2019-04-05 04:07:00",5.6,4.2,0.0,0.0,0,997.0,0,2,"",91
"2019-04-05 04:08:00",5.6,4.2,0.0,0.0,0,997.1,1,2,"",91
"2019-04-05 04:09:00",5.6,4.2,0.0,0.0,0,997.1,1,2,"",91
"2019-04-05 04:10:00",5.7,4.3,0.0,0.0,0,997.0,0,1,"",91
"2019-04-05 04:11:00",5.6,4.4,0.0,0.0,0,997.1,0,2,"",92
"2019-04-05 04:12:00",5.7,4.5,0.0,0.0,0,997.0,0,0,"",92
"2019-04-05 04:13:00",5.6,4.4,0.0,0.0,0,997.1,0,2,"",92
"2019-04-05 04:14:00",5.6,4.4,0.0,0.0,0,997.1,0,1,"",92
"2019-04-05 04:15:00",5.6,4.4,0.0,0.0,0,997.1,1,3,"",92
"2019-04-05 04:16:00",5.6,4.4,0.0,0.0,0,997.0,1,2,"",92
"2019-04-05 04:17:00",5.6,4.4,0.0,0.0,0,997.1,0,0,"",92
"2019-04-05 04:18:00",5.7,4.5,0.0,0.0,0,997.0,0,0,"",92
"2019-04-05 04:19:00",5.6,4.4,0.0,0.0,0,997.1,0,0,"",92
"2019-04-05 04:20:00",5.6,4.4,0.0,0.0,0,997.1,0,0,"",92
"2019-04-05 04:21:00",5.7,4.5,0.0,0.0,0,997.1,0,2,"",92
"2019-04-05 04:22:00",5.7,4.5,0.0,0.0,0,997.0,1,2,"",92
"2019-04-05 04:23:00",5.7,4.5,0.0,0.0,0,997.0,0,1,"",92
"2019-04-05 04:24:00",5.7,4.5,0.0,0.0,0,997.0,0,1,"",92
"2019-04-05 04:25:00",5.7,4.5,0.0,0.0,0,997.1,0,2,"",92
"2019-04-05 04:26:00",5.7,4.5,0.0,0.0,0,997.1,0,1,"",92
"2019-04-05 04:27:00",5.7,4.5,0.0,0.0,0,997.0,0,0,"",92
"2019-04-05 04:28:00",5.7,4.5,0.0,0.0,0,997.0,0,0,"",92
"2019-04-05 04:29:00",5.7,4.5,0.0,0.0,0,997.0,0,2,"",92
"2019-04-05 04:30:00",5.7,4.5,0.0,0.0,0,997.0,3,4,4.4,92
"2019-04-05 04:31:00",5.7,4.5,0.0,0.0,0,997.0,0,0,"",92
"2019-04-05 04:32:00",5.7,4.5,0.0,0.0,0,997.1,1,5,3.9,92
"2019-04-05 04:33:00",5.8,4.6,0.0,0.0,0,997.1,1,2,"",92
"2019-04-05 04:34:00",5.8,4.6,0.0,0.0,0,997.0,0,1,"",92
"2019-04-05 04:35:00",5.8,4.6,0.0,0.0,0,997.0,1,3,"",92
"2019-04-05 04:36:00",5.8,4.6,0.0,0.0,0,997.1,1,2,"",92
"2019-04-05 04:37:00",5.8,4.6,0.0,0.0,0,997.0,0,1,"",92
"2019-04-05 04:38:00",5.8,4.6,0.0,0.0,0,997.0,0,0,"",92
"2019-04-05 04:39:00",5.9,4.7,0.0,0.0,0,997.1,0,2,"",92
"2019-04-05 04:40:00",5.9,4.7,0.0,0.0,0,997.1,0,0,"",92
"2019-04-05 04:41:00",5.9,4.7,0.0,0.0,0,997.0,0,1,"",92
"2019-04-05 04:42:00",5.9,4.7,0.0,0.0,0,997.0,3,9,3.1,92
"2019-04-05 04:43:00",6.0,4.8,0.0,0.0,0,997.0,2,5,4.3,92
"2019-04-05 04:44:00",6.0,4.8,0.0,0.0,0,997.1,1,2,"",92
"2019-04-05 04:45:00",6.1,4.9,0.0,0.0,0,997.0,0,2,"",92
"2019-04-05 04:46:00",6.1,4.9,0.0,0.0,0,997.0,0,2,"",92
"2019-04-05 04:47:00",6.1,4.9,0.0,0.0,0,997.0,1,2,"",92
"2019-04-05 04:48:00",6.2,5.0,0.0,0.0,0,997.1,1,3,"",92
"2019-04-05 04:49:00",6.2,5.0,0.0,0.0,0,997.1,0,1,"",92
"2019-04-05 04:50:00",6.2,5.0,0.0,0.0,0,997.1,1,4,5.0,92
"2019-04-05 04:51:00",6.2,5.0,0.0,0.0,0,997.0,2,5,4.5,92
"2019-04-05 04:52:00",6.2,5.0,0.0,0.0,0,997.1,1,3,"",92
"2019-04-05 04:53:00",6.3,5.1,0.0,0.0,0,997.1,2,11,3.0,92
"2019-04-05 04:54:00",6.3,5.1,0.0,0.0,0,997.1,1,3,"",92
"2019-04-05 04:55:00",6.4,5.2,0.0,0.0,0,997.0,1,2,"",92
"2019-04-05 04:56:00",6.4,5.2,0.0,0.0,0,997.0,1,2,"",92
"2019-04-05 04:57:00",6.4,5.0,0.0,0.0,0,997.1,5,14,2.6,91
"2019-04-05 04:58:00",6.4,5.0,0.0,0.0,0,997.0,0,1,"",91
"2019-04-05 04:59:00",6.5,5.1,0.0,0.0,0,997.0,2,3,"",91
"2019-04-05 05:00:00",6.5,5.1,0.0,0.0,0,996.9,2,4,5.2,91
"2019-04-05 05:01:00",6.6,5.2,0.0,0.0,0,996.9,4,7,4.2,91
"2019-04-05 05:02:00",6.6,5.2,0.0,0.0,0,996.9,1,4,5.4,91
"2019-04-05 05:03:00",6.6,5.2,0.0,0.0,0,996.9,0,1,"",91
"2019-04-05 05:04:00",6.6,5.2,0.0,0.0,0,996.9,2,5,5.0,91
"2019-04-05 05:05:00",6.6,5.2,0.0,0.0,0,996.9,2,8,4.0,91
"2019-04-05 05:06:00",6.6,5.2,0.0,0.0,0,996.9,2,6,4.6,91
"2019-04-05 05:07:00",6.6,5.2,0.0,0.0,0,996.9,2,4,5.4,91
"2019-04-05 05:08:00",6.7,5.3,0.0,0.0,0,997.0,4,9,3.9,91
"2019-04-05 05:09:00",6.7,5.3,0.0,0.0,0,996.9,1,3,"",91
"2019-04-05 05:10:00",6.7,5.3,0.0,0.0,0,996.9,3,8,4.2,91
"2019-04-05 05:11:00",6.7,5.3,0.0,0.0,0,997.0,6,12,3.3,91
"2019-04-05 05:12:00",6.7,5.3,0.0,0.0,0,997.0,4,8,4.2,91
"2019-04-05 05:13:00",6.8,5.4,0.0,0.0,0,997.0,3,6,4.9,91
"2019-04-05 05:14:00",6.8,5.3,0.0,0.0,0,997.0,2,4,5.7,90
"2019-04-05 05:15:00",6.8,5.3,0.2,0.0,0,997.0,2,4,5.7,90
"2019-04-05 05:16:00",6.8,5.3,0.2,0.0,0,996.9,3,6,4.9,90
"2019-04-05 05:17:00",6.8,5.3,0.2,0.0,0,997.0,5,9,4.0,90
"2019-04-05 05:18:00",6.9,5.4,0.2,0.0,0,997.0,3,5,5.2,90
"2019-04-05 05:19:00",6.9,5.4,0.2,0.0,0,997.0,1,3,"",90
"2019-04-05 05:20:00",6.9,5.4,0.2,0.0,0,997.0,2,4,5.8,90
"2019-04-05 05:21:00",6.9,5.4,0.2,0.0,0,997.1,4,11,3.7,90
"2019-04-05 05:22:00",6.9,5.4,0.2,0.0,0,997.1,3,5,5.4,90
"2019-04-05 05:23:00",6.9,5.4,0.2,0.0,0,997.1,3,4,5.8,90
"2019-04-05 05:24:00",7.0,5.5,0.2,0.0,0,997.1,5,10,4.1,90
"2019-04-05 05:25:00",7.0,5.5,0.2,0.0,0,997.0,5,9,4.2,90
"2019-04-05 05:26:00",7.1,5.6,0.2,0.0,0,997.1,3,8,4.5,90
"2019-04-05 05:27:00",7.1,5.6,0.2,0.0,0,997.0,2,3,"",90
"2019-04-05 05:28:00",7.1,5.4,0.2,0.0,0,997.1,0,1,"",89
"2019-04-05 05:29:00",7.1,5.6,0.2,0.0,0,997.1,2,5,5.6,90
"2019-04-05 05:30:00",7.1,5.4,0.2,0.0,0,997.1,3,9,4.4,89
"2019-04-05 05:31:00",7.1,5.4,0.2,0.0,0,997.1,2,4,6.0,89
"2019-04-05 05:32:00",7.1,5.4,0.2,0.0,0,997.1,4,9,4.4,89
"2019-04-05 05:33:00",7.1,5.4,0.2,0.0,0,997.1,1,3,"",89
"2019-04-05 05:34:00",7.1,5.4,0.2,0.0,0,997.1,2,5,5.7,89
"2019-04-05 05:35:00",7.1,5.4,0.2,0.0,0,997.1,2,4,6.0,89
"2019-04-05 05:36:00",7.2,5.5,0.2,0.0,0,997.1,3,8,4.8,89
"2019-04-05 05:37:00",7.2,5.5,0.2,0.0,0,997.1,3,8,4.8,89
"2019-04-05 05:38:00",7.2,5.5,0.2,0.0,0,997.1,4,8,4.8,89
"2019-04-05 05:39:00",7.2,5.5,0.2,0.0,0,997.1,3,8,4.8,89
"2019-04-05 05:40:00",7.2,5.5,0.2,0.0,0,997.1,3,5,5.7,89
"2019-04-05 05:41:00",7.2,5.5,0.2,0.0,0,997.1,3,6,5.4,89
"2019-04-05 05:42:00",7.2,5.5,0.2,0.0,0,997.1,1,2,"",89
"2019-04-05 05:43:00",7.2,5.5,0.2,0.0,0,997.1,0,1,"",89
"2019-04-05 05:44:00",7.2,5.5,0.2,0.0,0,997.2,3,8,4.8,89
"2019-04-05 05:45:00",7.3,5.6,0.2,0.0,0,997.1,2,3,"",89
"2019-04-05 05:46:00",7.3,5.6,0.2,0.0,0,997.1,2,8,4.8,89
"2019-04-05 05:47:00",7.3,5.6,0.2,0.0,0,997.1,4,9,4.7,89
"2019-04-05 05:48:00",7.3,5.4,0.2,0.0,0,997.1,4,13,3.9,88
"2019-04-05 05:49:00",7.3,5.4,0.2,0.0,0,997.1,2,5,5.8,88
"2019-04-05 05:50:00",7.3,5.4,0.2,0.0,0,997.1,2,4,6.2,88
"2019-04-05 05:51:00",7.3,5.4,0.2,0.0,0,997.1,2,4,6.2,88
"2019-04-05 05:52:00",7.3,5.4,0.2,0.0,0,997.1,1,2,"",88
"2019-04-05 05:53:00",7.3,5.4,0.2,0.0,0,997.1,3,9,4.7,88
"2019-04-05 05:54:00",7.4,5.5,0.2,0.0,0,997.2,2,6,5.5,88
"2019-04-05 05:55:00",7.4,5.5,0.2,0.0,0,997.2,2,3,"",88
"2019-04-05 05:56:00",7.4,5.5,0.2,0.0,0,997.2,3,5,5.9,88
"2019-04-05 05:57:00",7.4,5.5,0.2,0.0,0,997.2,3,7,5.3,88
"2019-04-05 05:58:00",7.4,5.5,0.2,0.0,0,997.2,4,7,5.3,88
"2019-04-05 05:59:00",7.4,5.5,0.2,0.0,0,997.3,1,4,6.4,88
"2019-04-05 06:00:00",7.4,5.5,0.2,0.0,0,997.3,2,4,6.4,88
"2019-04-05 06:01:00",7.4,5.5,0.2,0.0,0,997.3,5,8,5.0,88
"2019-04-05 06:02:00",7.4,5.5,0.2,0.0,0,997.3,2,5,5.9,88
"2019-04-05 06:03:00",7.5,5.6,0.2,0.0,0,997.3,4,7,5.4,88
"2019-04-05 06:04:00",7.5,5.5,0.2,0.0,0,997.4,2,4,6.5,87
"2019-04-05 06:05:00",7.6,5.6,0.2,0.0,0,997.4,2,7,5.4,87
"2019-04-05 06:06:00",7.6,5.6,0.2,0.0,0,997.4,2,4,6.5,87
"2019-04-05 06:07:00",7.6,5.6,0.2,0.0,0,997.5,2,5,6.2,87
"2019-04-05 06:08:00",7.6,5.6,0.2,0.0,0,997.5,3,12,4.4,87
"2019-04-05 06:09:00",7.6,5.6,0.2,0.0,0,997.5,6,11,4.6,87
"2019-04-05 06:10:00",7.6,5.4,0.2,0.0,0,997.5,4,11,4.6,86
"2019-04-05 06:11:00",7.7,5.5,0.2,0.0,0,997.5,4,9,5.0,86
"2019-04-05 06:12:00",7.7,5.5,0.2,0.0,0,997.5,4,7,5.7,86
"2019-04-05 06:13:00",7.7,5.5,0.2,0.0,0,997.5,4,9,5.1,86
"2019-04-05 06:14:00",7.7,5.5,0.2,0.0,0,997.5,3,9,5.1,86
"2019-04-05 06:15:00",7.7,5.5,0.2,0.0,0,997.5,3,7,5.7,86
"2019-04-05 06:16:00",7.7,5.5,0.2,0.0,0,997.6,2,4,6.7,86
"2019-04-05 06:17:00",7.7,5.5,0.2,0.0,0,997.5,3,7,5.7,86
"2019-04-05 06:18:00",7.8,5.6,0.2,0.0,0,997.5,2,6,6.0,86
"2019-04-05 06:19:00",7.8,5.6,0.2,0.0,0,997.4,4,10,5.1,86
"2019-04-05 06:20:00",7.8,5.4,0.2,0.0,0,997.5,3,9,5.3,85
"2019-04-05 06:21:00",7.8,5.4,0.2,0.0,0,997.4,4,9,5.3,85
"2019-04-05 06:22:00",7.8,5.4,0.2,0.0,0,997.5,3,5,6.4,85
"2019-04-05 06:23:00",7.8,5.4,0.2,0.0,0,997.4,2,5,6.4,85
"2019-04-05 06:24:00",7.8,5.4,0.2,0.0,0,997.5,3,7,5.8,85
"2019-04-05 06:25:00",7.8,5.6,0.2,0.0,0,997.5,5,12,4.7,86
"2019-04-05 06:26:00",7.8,5.4,0.2,0.0,0,997.5,5,8,5.5,85
"2019-04-05 06:27:00",7.9,5.5,0.2,0.0,0,997.5,1,4,6.9,85
"2019-04-05 06:28:00",7.9,5.7,0.2,0.0,0,997.6,4,8,5.6,86
"2019-04-05 06:29:00",7.9,5.7,0.2,0.0,0,997.6,1,3,"",86
"2019-04-05 06:30:00",7.9,5.7,0.2,0.0,0,997.6,4,7,5.9,86
"2019-04-05 06:31:00",7.9,5.7,0.2,0.0,0,997.6,2,3,"",86
"2019-04-05 06:32:00",7.8,5.6,0.2,0.0,0,997.6,2,5,6.4,86
"2019-04-05 06:33:00",7.9,5.7,0.2,0.0,0,997.6,3,10,5.1,86
"2019-04-05 06:34:00",7.9,5.7,0.2,0.0,0,997.7,2,3,"",86
"2019-04-05 06:35:00",7.8,5.6,0.2,0.0,0,997.7,3,6,6.2,86
"2019-04-05 06:36:00",7.8,5.6,0.2,0.0,0,997.7,2,5,6.4,86
"2019-04-05 06:37:00",7.9,5.7,0.2,0.0,0,997.7,1,4,6.9,86
"2019-04-05 06:38:00",7.9,5.5,0.2,0.0,0,997.7,2,4,6.8,85
"2019-04-05 06:39:00",7.9,5.5,0.2,0.0,0,997.7,1,2,"",85
"2019-04-05 06:40:00",7.9,5.7,0.2,0.0,0,997.7,1,3,"",86
"2019-04-05 06:41:00",7.8,5.6,0.2,0.0,0,997.8,3,5,6.4,86
"2019-04-05 06:42:00",7.8,5.4,0.2,0.0,0,997.8,2,6,6.1,85
"2019-04-05 06:43:00",7.9,5.5,0.2,0.0,0,997.7,1,3,"",85
"2019-04-05 06:44:00",7.8,5.4,0.2,0.0,0,997.7,0,2,"",85
"2019-04-05 06:45:00",7.8,5.4,0.2,0.0,0,997.8,3,6,6.1,85
"2019-04-05 06:46:00",7.8,5.4,0.2,0.0,0,997.8,2,4,6.8,85
"2019-04-05 06:47:00",7.9,5.5,0.2,0.0,0,997.8,2,6,6.2,85
"2019-04-05 06:48:00",7.9,5.5,0.2,0.0,0,997.9,6,10,5.1,85
"2019-04-05 06:49:00",7.9,5.5,0.2,0.0,0,997.9,5,9,5.4,85
"2019-04-05 06:50:00",7.9,5.5,0.2,0.0,0,997.9,1,4,6.8,85
"2019-04-05 06:51:00",7.9,5.5,0.2,0.0,0,998.0,2,5,6.5,85
"2019-04-05 06:52:00",7.9,5.5,0.2,0.0,0,998.0,4,11,5.0,85
"2019-04-05 06:53:00",7.9,5.5,0.2,0.0,0,997.9,5,9,5.4,85
"2019-04-05 06:54:00",7.9,5.5,0.2,0.0,0,998.0,3,8,5.6,85
"2019-04-05 06:55:00",7.9,5.5,0.2,0.0,0,998.0,3,6,6.2,85
"2019-04-05 06:56:00",7.9,5.5,0.2,0.0,0,998.0,5,12,4.8,85
"2019-04-05 06:57:00",7.9,5.5,0.2,0.0,0,998.0,3,7,5.9,85
"2019-04-05 06:58:00",7.9,5.5,0.2,0.0,0,998.0,3,6,6.2,85
"2019-04-05 06:59:00",7.9,5.5,0.2,0.0,0,998.0,3,6,6.2,85
"2019-04-05 07:00:00",7.9,5.5,0.2,0.0,0,998.0,1,6,6.2,85
"2019-04-05 07:01:00",7.9,5.5,0.2,0.0,5,998.0,3,8,5.6,85
"2019-04-05 07:02:00",7.9,5.5,0.2,0.0,5,998.0,5,9,5.4,85